Back to catalog

COSMOS 2251 DEB

AliveLEO
NORAD 34637·DEBRIS·🇷🇺 Russia

Launched Jun 16, 1993 from Plesetsk Cosmodrome

Loading…

Next Passes (next 24 hours)

TLE

FreshSource: Space-Track

Epoch: Sep 14, 2026, 13:14 UTC

1 34637U 93036XJ  26257.55149635  .00001653  00000-0  33026-3 0  9996
2 34637  74.0475 294.2440 0051533 292.4479 218.7600 14.61925872925556

Track COSMOS 2251 DEB in real time with AllMySat

Download on the App Store